Flag for Germany Weather past 2 weeks in Friesoythe, Lower Saxony, Germany

Now
45 °F

Scattered showers. Broken clouds.


Feels Like: 39 °F
Forecast: 37 / 50 °F
Wind: 12 mph from West

Location: Meppen-Mil

Current Time: Mar 27, 2015 at 11:59:03 AM

Latest Report: Mar 27, 2015 at 11:20 AM


Visibility: N/A

Pressure: 29.89 "Hg

Humidity: 81%

Dew point: 39 °F

Location of FriesoytheLocation

Historic Weather in Friesoythe — Graph

°F

Friesoythe temperature yesterday

Maximum temperature yesterday: 46 °F (at 12:20 PM)
Minimum temperature yesterday: 39 °F (at 2:20 AM)
Average temperature yesterday: 42 °F

Past Weeks' High & Low Weather Summary

 TemperatureHumidityPressure
High63 °F (Mar 18, 3:20 PM)100% (Mar 12, 10:20 AM)30.51 "Hg (Mar 12, 10:20 AM)
Low25 °F (Mar 23, 6:20 AM)41% (Mar 24, 4:20 PM)29.65 "Hg (Mar 25, 9:20 AM)
Average42 °F77%30.15 "Hg
* Reported Mar 12 10:20 AM — Mar 27 10:20 AM, Friesoythe, Weather by CustomWeather, © 2015

Note: Actual official high and low records may vary slightly from our data, if they occured in-between our weather recording intervals... More about our weather records

Advertising

Friesoythe weather history for previous 24 hours

 ConditionsComfort  
Time TempWeatherWind HumidityBarometerVisibility
10:20 AM
Fri, Mar 27
45 °FSprinkles. Broken clouds.13 mph76%29.86 "HgN/A
9:20 AM45 °FSprinkles. Broken clouds.13 mph76%29.83 "HgN/A
8:20 AM43 °FBroken clouds.13 mph81%29.83 "HgN/A
7:20 AM43 °FBroken clouds.13 mph81%29.80 "HgN/A
6:20 AM41 °FPartly cloudy.9 mph87%29.77 "HgN/A
5:20 AM43 °FQuite cool.10 mph87%29.74 "HgN/A
4:20 AM41 °FQuite cool.8 mph93%29.74 "HgN/A
3:20 AM43 °FQuite cool.9 mph87%29.71 "Hg5 mi
2:20 AM43 °FQuite cool.12 mph87%29.71 "HgN/A
1:20 AM43 °FQuite cool.8 mph87%29.71 "Hg5 mi
12:20 AM43 °FQuite cool.7 mph87%29.68 "Hg4 mi
11:20 PM
Thu, Mar 26
41 °FQuite cool.9 mph87%29.68 "Hg4 mi
10:20 PM41 °FQuite cool.8 mph87%29.68 "Hg5 mi
9:20 PM39 °FChilly.9 mph93%29.68 "Hg4 mi
8:20 PM41 °FQuite cool.8 mph81%29.68 "Hg4 mi
7:20 PM41 °FQuite cool.8 mph81%29.68 "HgN/A
6:20 PM39 °FChilly.6 mph87%29.68 "Hg5 mi
5:20 PM41 °FQuite cool.9 mph81%29.71 "HgN/A
4:20 PM45 °FLight rain. Partly sunny.8 mph61%29.68 "HgN/A
3:20 PM46 °FPartly sunny.9 mph53%29.68 "HgN/A
2:20 PM46 °FBroken clouds.12 mph53%29.68 "HgN/A
1:20 PM46 °FPartly sunny.9 mph53%29.71 "HgN/A
12:20 PM46 °FBroken clouds.10 mph53%29.71 "HgN/A
11:20 AM43 °FPartly sunny.9 mph61%29.74 "HgN/A
Weather by CustomWeather, © 2015

See weather overviewHow to use our weather pages